,,,PA_Meas_PMT16A,,PR_Meas_QMR101_102,,RH_Meas_QMH101,,SR_Meas_QMS101,,TA_Meas_QMH101,,GenWind,,GenWind,
date,time,status,PA,status,PR,status,RH,status,SR,status,TA,status,DirAvg,status,SpdAvg,
2009-06-11, 00:00:04,VALID,1010.93,VALID,0,VALID,91.9132,VALID,0,VALID,24.3937,VALID,160,VALID,0,
2009-06-11, 00:01:04,VALID,1010.93,VALID,0,VALID,92.0505,VALID,0.105969,VALID,24.4327,VALID,160,VALID,0,
2009-06-11, 00:02:04,VALID,1010.9,VALID,0,VALID,92.1877,VALID,0.105969,VALID,24.4522,VALID,29,VALID,0,
2009-06-11, 00:03:04,VALID,1010.88,VALID,0,VALID,92.2564,VALID,0.105969,VALID,24.4717,VALID,29,VALID,0,
2009-06-11, 00:04:04,VALID,1010.88,VALID,0,VALID,92.2945,VALID,0.105969,VALID,24.4717,VALID,29,VALID,0,
2009-06-11, 00:05:04,VALID,1010.88,VALID,0,VALID,92.3555,VALID,0.105969,VALID,24.4911,VALID,29,VALID,0,
2009-06-11, 00:06:04,VALID,1010.84,VALID,0,VALID,92.3784,VALID,0.105969,VALID,24.4911,VALID,29,VALID,0,
2009-06-11, 00:07:04,VALID,1010.87,VALID,0,VALID,92.4089,VALID,0.105969,VALID,24.4911,VALID,29,VALID,0,
2009-06-11, 00:08:04,VALID,1010.84,VALID,0,VALID,92.3708,VALID,0.105969,VALID,24.4717,VALID,49,VALID,0.776172,
2009-06-11, 00:09:04,VALID,1010.84,VALID,0,VALID,92.3631,VALID,0,VALID,24.4522,VALID,48,VALID,0.484375,
2009-06-11, 00:10:04,VALID,1010.83,VALID,0,VALID,92.3784,VALID,0.105969,VALID,24.4327,VALID,48,VALID,0.463672,
2009-06-11, 00:11:04,VALID,1010.83,VALID,0,VALID,92.3631,VALID,0,VALID,24.4327,VALID,55,VALID,0.442969,
2009-06-11, 00:12:04,VALID,1010.8,VALID,0,VALID,92.386,VALID,0.105969,VALID,24.4522,VALID,65,VALID,1.09844,
2009-06-11, 00:13:04,VALID,1010.82,VALID,0,VALID,92.4318,VALID,0,VALID,24.4522,VALID,61,VALID,0.728516,
2009-06-11, 00:14:04,VALID,1010.77,VALID,0,VALID,92.4241,VALID,0.105969,VALID,24.4522,VALID,53,VALID,0.590625,
2009-06-11, 00:15:04,VALID,1010.79,VALID,0,VALID,92.4318,VALID,0.105969,VALID,24.4522,VALID,68,VALID,0.751172,
2009-06-11, 00:16:04,VALID,1010.78,VALID,0,VALID,92.4394,VALID,0,VALID,24.4522,VALID,72,VALID,0.423828,
2009-06-11, 00:17:04,VALID,1010.79,VALID,0,VALID,92.4318,VALID,0.105969,VALID,24.4522,VALID,75,VALID,0.551172,
2009-06-11, 00:18:04,VALID,1010.78,VALID,0,VALID,92.4013,VALID,0.105969,VALID,24.4717,VALID,74,VALID,0.673047,
2009-06-11, 00:19:04,VALID,1010.8,VALID,0,VALID,92.4013,VALID,0.105969,VALID,24.4717,VALID,64,VALID,0.798047,
2009-06-11, 00:20:04,VALID,1010.81,VALID,0,VALID,92.3631,VALID,0.105969,VALID,24.4522,VALID,63,VALID,0.93125,
2009-06-11, 00:21:04,VALID,1010.81,VALID,0,VALID,92.3555,VALID,0,VALID,24.4522,VALID,60,VALID,0.889844,
2009-06-11, 00:22:04,VALID,1010.85,VALID,0,VALID,92.3174,VALID,0,VALID,24.493,VALID,53,VALID,0.862891,
2009-06-11, 00:23:04,VALID,1010.84,VALID,0,VALID,92.2869,VALID,0,VALID,24.4522,VALID,46,VALID,0.491797,
2009-06-11, 00:24:04,VALID,1010.82,VALID,0,VALID,92.264,VALID,0,VALID,24.4522,VALID,32,VALID,0.279297,
2009-06-11, 00:25:04,VALID,1010.85,VALID,0,VALID,92.203,VALID,0,VALID,24.4327,VALID,21,VALID,0.289063,
2009-06-11, 00:26:04,VALID,1010.82,VALID,0,VALID,92.2106,VALID,0,VALID,24.4132,VALID,40,VALID,0.350781,
2009-06-11, 00:27:04,VALID,1010.82,VALID,0,VALID,92.203,VALID,0.105969,VALID,24.4132,VALID,25,VALID,0.467187,
2009-06-11, 00:28:04,VALID,1010.84,VALID,0,VALID,92.2335,VALID,0,VALID,24.3937,VALID,30,VALID,0.430469,
2009-06-11, 00:29:04,VALID,1010.81,VALID,0,VALID,92.2487,VALID,0,VALID,24.3742,VALID,38,VALID,0.673437,
2009-06-11, 00:30:04,VALID,1010.8,VALID,0,VALID,92.2716,VALID,0,VALID,24.3547,VALID,21,VALID,0.0890625,
2009-06-11, 00:31:04,VALID,1010.81,VALID,0,VALID,92.2564,VALID,0.105969,VALID,24.3547,VALID,21,VALID,0,
2009-06-11, 00:32:04,VALID,1010.8,VALID,0,VALID,92.2869,VALID,0,VALID,24.3566,VALID,28,VALID,0.0046875,
2009-06-11, 00:33:04,VALID,1010.81,VALID,0,VALID,92.3174,VALID,0,VALID,24.3352,VALID,70,VALID,0.371094,
2009-06-11, 00:34:04,VALID,1010.78,VALID,0,VALID,92.3402,VALID,0,VALID,24.3352,VALID,36,VALID,0.333984,
2009-06-11, 00:35:04,VALID,1010.76,VALID,0,VALID,92.3555,VALID,0,VALID,24.3158,VALID,36,VALID,0.163672,
2009-06-11, 00:36:04,VALID,1010.75,VALID,0,VALID,92.3631,VALID,0.105969,VALID,24.3158,VALID,36,VALID,0,
2009-06-11, 00:37:04,VALID,1010.7,VALID,0,VALID,92.4013,VALID,0.105969,VALID,24.3158,VALID,56,VALID,0.255859,
2009-06-11, 00:38:04,VALID,1010.68,VALID,0,VALID,92.4089,VALID,0.105969,VALID,24.3158,VALID,57,VALID,0.00351562,
2009-06-11, 00:39:04,VALID,1010.66,VALID,0,VALID,92.447,VALID,0.105969,VALID,24.2963,VALID,59,VALID,0.219141,
2009-06-11, 00:40:04,VALID,1010.66,VALID,0,VALID,92.4394,VALID,0,VALID,24.2963,VALID,62,VALID,0.0316406,
2009-06-11, 00:41:04,VALID,1010.65,VALID,0,VALID,92.447,VALID,0.105969,VALID,24.2963,VALID,63,VALID,0.186328,
2009-06-11, 00:42:04,VALID,1010.64,VALID,0,VALID,92.508,VALID,0.105969,VALID,24.3352,VALID,74,VALID,0.300781,
2009-06-11, 00:43:04,VALID,1010.62,VALID,0,VALID,92.5004,VALID,0.105969,VALID,24.3158,VALID,74,VALID,0,
2009-06-11, 00:44:04,VALID,1010.6,VALID,0,VALID,92.4775,VALID,0.105969,VALID,24.3158,VALID,74,VALID,0,
2009-06-11, 00:45:04,VALID,1010.59,VALID,0,VALID,92.4623,VALID,0.105969,VALID,24.3158,VALID,74,VALID,0,
2009-06-11, 00:46:04,VALID,1010.58,VALID,0,VALID,92.4318,VALID,0,VALID,24.2963,VALID,74,VALID,0,
2009-06-11, 00:47:04,VALID,1010.55,VALID,0,VALID,92.4241,VALID,0,VALID,24.2981,VALID,74,VALID,0,
2009-06-11, 00:48:04,VALID,1010.55,VALID,0,VALID,92.4241,VALID,0,VALID,24.2981,VALID,74,VALID,0,
2009-06-11, 00:49:04,VALID,1010.56,VALID,0,VALID,92.4318,VALID,0,VALID,24.2981,VALID,74,VALID,0,
2009-06-11, 00:50:04,VALID,1010.52,VALID,0,VALID,92.4623,VALID,0,VALID,24.2786,VALID,74,VALID,0,
2009-06-11, 00:51:04,VALID,1010.51,VALID,0,VALID,92.4928,VALID,0,VALID,24.2573,VALID,72,VALID,0,
2009-06-11, 00:52:04,VALID,1010.49,VALID,0,VALID,92.5309,VALID,0,VALID,24.2786,VALID,353,VALID,0,
2009-06-11, 00:53:04,VALID,1010.45,VALID,0,VALID,92.569,VALID,0,VALID,24.2786,VALID,353,VALID,0,
2009-06-11, 00:54:04,VALID,1010.45,VALID,0,VALID,92.5995,VALID,0,VALID,24.2981,VALID,354,VALID,0,
2009-06-11, 00:55:04,VALID,1010.43,VALID,0,VALID,92.6224,VALID,0,VALID,24.2786,VALID,354,VALID,0,
2009-06-11, 00:56:04,VALID,1010.39,VALID,0,VALID,92.6148,VALID,0,VALID,24.2786,VALID,354,VALID,0,
2009-06-11, 00:57:04,VALID,1010.38,VALID,0,VALID,92.6071,VALID,0,VALID,24.2591,VALID,354,VALID,0,
2009-06-11, 00:58:04,VALID,1010.39,VALID,0,VALID,92.5919,VALID,0,VALID,24.2591,VALID,354,VALID,0,
2009-06-11, 00:59:04,VALID,1010.36,VALID,0,VALID,92.5995,VALID,0,VALID,24.2202,VALID,354,VALID,0,
2009-06-11, 01:00:04,VALID,1010.35,VALID,0,VALID,92.6148,VALID,0,VALID,24.2396,VALID,354,VALID,0,
2009-06-11, 01:01:04,VALID,1010.33,VALID,0,VALID,92.6224,VALID,0.105969,VALID,24.2183,VALID,354,VALID,0,
2009-06-11, 01:02:04,VALID,1010.33,VALID,0,VALID,92.6376,VALID,0.105969,VALID,24.2183,VALID,354,VALID,0,
2009-06-11, 01:03:04,VALID,1010.33,VALID,0,VALID,92.6605,VALID,0.105969,VALID,24.1775,VALID,354,VALID,0,
2009-06-11, 01:04:04,VALID,1010.3,VALID,0,VALID,92.691,VALID,0,VALID,24.1793,VALID,354,VALID,0,
2009-06-11, 01:05:04,VALID,1010.27,VALID,0,VALID,92.6834,VALID,0.105969,VALID,24.1775,VALID,354,VALID,0,
2009-06-11, 01:06:04,VALID,1010.25,VALID,0,VALID,92.7139,VALID,0.105969,VALID,24.1793,VALID,354,VALID,0,
2009-06-11, 01:07:04,VALID,1010.24,VALID,0,VALID,92.7444,VALID,0.105969,VALID,24.1793,VALID,354,VALID,0,
2009-06-11, 01:08:04,VALID,1010.23,VALID,0,VALID,92.7673,VALID,0.105969,VALID,24.1599,VALID,354,VALID,0,
2009-06-11, 01:09:04,VALID,1010.24,VALID,0,VALID,92.8054,VALID,0,VALID,24.1599,VALID,354,VALID,0,
2009-06-11, 01:10:04,VALID,1010.24,VALID,0,VALID,92.813,VALID,0.105969,VALID,24.1599,VALID,354,VALID,0,
2009-06-11, 01:11:04,VALID,1010.24,VALID,0,VALID,92.8588,VALID,0.105969,VALID,24.1404,VALID,354,VALID,0,
2009-06-11, 01:12:04,VALID,1010.23,VALID,0,VALID,92.8512,VALID,0.105969,VALID,24.1404,VALID,354,VALID,0,
2009-06-11, 01:13:04,VALID,1010.22,VALID,0,VALID,92.8817,VALID,0,VALID,24.1191,VALID,354,VALID,0,
2009-06-11, 01:14:04,VALID,1010.2,VALID,0,VALID,92.8969,VALID,0.105969,VALID,24.1404,VALID,354,VALID,0,
2009-06-11, 01:15:04,VALID,1010.17,VALID,0,VALID,92.8969,VALID,0.105969,VALID,24.1404,VALID,354,VALID,0,
2009-06-11, 01:16:04,VALID,1010.19,VALID,0,VALID,92.9274,VALID,0,VALID,24.1404,VALID,354,VALID,0,
2009-06-11, 01:17:04,VALID,1010.19,VALID,0,VALID,92.9274,VALID,0,VALID,24.1422,VALID,354,VALID,0,
2009-06-11, 01:18:04,VALID,1010.19,VALID,0,VALID,92.9579,VALID,0,VALID,24.1617,VALID,354,VALID,0,
2009-06-11, 01:19:04,VALID,1010.2,VALID,0,VALID,92.9579,VALID,0,VALID,24.1209,VALID,354,VALID,0,
2009-06-11, 01:20:04,VALID,1010.22,VALID,0,VALID,92.9808,VALID,0,VALID,24.1422,VALID,354,VALID,0,
2009-06-11, 01:21:04,VALID,1010.21,VALID,0,VALID,92.9808,VALID,0,VALID,24.1422,VALID,354,VALID,0,
2009-06-11, 01:22:04,VALID,1010.21,VALID,0,VALID,92.9884,VALID,0,VALID,24.1422,VALID,354,VALID,0,
2009-06-11, 01:23:04,VALID,1010.2,VALID,0,VALID,92.9961,VALID,0,VALID,24.1422,VALID,354,VALID,0,
2009-06-11, 01:24:04,VALID,1010.21,VALID,0,VALID,92.9808,VALID,0,VALID,24.1227,VALID,354,VALID,0,
2009-06-11, 01:25:04,VALID,1010.18,VALID,0,VALID,92.9808,VALID,0,VALID,24.1227,VALID,354,VALID,0,
2009-06-11, 01:26:04,VALID,1010.14,VALID,0,VALID,92.9656,VALID,0,VALID,24.1032,VALID,354,VALID,0,
2009-06-11, 01:27:04,VALID,1010.1,VALID,0,VALID,92.9732,VALID,0,VALID,24.1227,VALID,354,VALID,0,
2009-06-11, 01:28:04,VALID,1010.08,VALID,0,VALID,92.9808,VALID,0,VALID,24.1032,VALID,354,VALID,0,
2009-06-11, 01:29:04,VALID,1010.06,VALID,0,VALID,92.9579,VALID,0,VALID,24.1032,VALID,354,VALID,0,
2009-06-11, 01:30:04,VALID,1010.05,VALID,0,VALID,92.9656,VALID,0,VALID,24.1032,VALID,14,VALID,0,
2009-06-11, 01:31:04,VALID,1010.03,VALID,0,VALID,92.9579,VALID,0,VALID,24.1245,VALID,72,VALID,0,
2009-06-11, 01:32:04,VALID,1010.02,VALID,0,VALID,92.9579,VALID,0,VALID,24.1617,VALID,72,VALID,0,
2009-06-11, 01:33:04,VALID,1010.01,VALID,0,VALID,92.9961,VALID,0,VALID,24.1617,VALID,72,VALID,0,
2009-06-11, 01:34:04,VALID,1010.05,VALID,0,VALID,93.0113,VALID,0,VALID,24.1812,VALID,72,VALID,0,
2009-06-11, 01:35:04,VALID,1010.07,VALID,0,VALID,92.9961,VALID,0,VALID,24.2007,VALID,72,VALID,0,
2009-06-11, 01:36:04,VALID,1010.04,VALID,0,VALID,92.9961,VALID,0,VALID,24.1812,VALID,72,VALID,0,
2009-06-11, 01:37:04,VALID,1010.04,VALID,0,VALID,92.9808,VALID,0,VALID,24.2007,VALID,72,VALID,0,
2009-06-11, 01:38:04,VALID,1010.06,VALID,0,VALID,92.9808,VALID,0,VALID,24.2202,VALID,72,VALID,0,
2009-06-11, 01:39:04,VALID,1010.03,VALID,0,VALID,92.9884,VALID,0,VALID,24.2415,VALID,72,VALID,0,
2009-06-11, 01:40:04,VALID,1010.03,VALID,0,VALID,92.9656,VALID,0,VALID,24.222,VALID,72,VALID,0,
2009-06-11, 01:41:04,VALID,1009.99,VALID,0,VALID,92.9427,VALID,0,VALID,24.1812,VALID,72,VALID,0,
2009-06-11, 01:42:04,VALID,1009.98,VALID,0,VALID,92.9351,VALID,0,VALID,24.2025,VALID,72,VALID,0,
2009-06-11, 01:43:04,VALID,1009.98,VALID,0,VALID,92.9427,VALID,0,VALID,24.1812,VALID,72,VALID,0,
2009-06-11, 01:44:04,VALID,1009.98,VALID,0,VALID,92.9503,VALID,0,VALID,24.1812,VALID,72,VALID,0,
2009-06-11, 01:45:04,VALID,1009.98,VALID,0,VALID,92.9503,VALID,0,VALID,24.2007,VALID,72,VALID,0,
2009-06-11, 01:46:04,VALID,1009.97,VALID,0,VALID,92.9656,VALID,0,VALID,24.1988,VALID,72,VALID,0,
2009-06-11, 01:47:04,VALID,1009.94,VALID,0,VALID,92.9808,VALID,0,VALID,24.2396,VALID,72,VALID,0,
2009-06-11, 01:48:04,VALID,1009.95,VALID,0,VALID,92.9808,VALID,0,VALID,24.2202,VALID,72,VALID,0,
2009-06-11, 01:49:04,VALID,1009.91,VALID,0,VALID,92.9656,VALID,0,VALID,24.1988,VALID,72,VALID,0,
2009-06-11, 01:50:04,VALID,1009.91,VALID,0,VALID,92.9046,VALID,0,VALID,24.1599,VALID,72,VALID,0,
2009-06-11, 01:51:04,VALID,1009.88,VALID,0,VALID,92.8741,VALID,0,VALID,24.1599,VALID,72,VALID,0,
2009-06-11, 01:52:04,VALID,1009.85,VALID,0,VALID,92.8664,VALID,0,VALID,24.1812,VALID,72,VALID,0,
2009-06-11, 01:53:04,VALID,1009.85,VALID,0,VALID,92.8436,VALID,0,VALID,24.1599,VALID,72,VALID,0,
2009-06-11, 01:54:04,VALID,1009.81,VALID,0,VALID,92.8588,VALID,0,VALID,24.1599,VALID,72,VALID,0,
2009-06-11, 01:55:04,VALID,1009.81,VALID,0,VALID,92.8741,VALID,0.105969,VALID,24.1599,VALID,72,VALID,0,
2009-06-11, 01:56:04,VALID,1009.78,VALID,0,VALID,92.8588,VALID,0,VALID,24.1404,VALID,72,VALID,0,
2009-06-11, 01:57:04,VALID,1009.76,VALID,0,VALID,92.8588,VALID,0,VALID,24.1404,VALID,72,VALID,0,
2009-06-11, 01:58:04,VALID,1009.76,VALID,0,VALID,92.8512,VALID,0.105969,VALID,24.1209,VALID,72,VALID,0,
2009-06-11, 01:59:04,VALID,1009.75,VALID,0,VALID,92.8436,VALID,0,VALID,24.1209,VALID,72,VALID,0,
2009-06-11, 02:00:04,VALID,1009.73,VALID,0,VALID,92.8817,VALID,0,VALID,24.1209,VALID,72,VALID,0,
2009-06-11, 02:01:04,VALID,1009.76,VALID,0,VALID,92.8741,VALID,0.105969,VALID,24.1014,VALID,72,VALID,0,
2009-06-11, 02:02:04,VALID,1009.75,VALID,0,VALID,92.8588,VALID,0,VALID,24.1227,VALID,72,VALID,0,
2009-06-11, 02:03:04,VALID,1009.78,VALID,0,VALID,92.8664,VALID,0,VALID,24.1014,VALID,72,VALID,0,
2009-06-11, 02:04:04,VALID,1009.8,VALID,0,VALID,92.8893,VALID,0,VALID,24.1014,VALID,35,VALID,0,
2009-06-11, 02:05:04,VALID,1009.81,VALID,0,VALID,92.9198,VALID,0,VALID,24.1227,VALID,35,VALID,0,
2009-06-11, 02:06:04,VALID,1009.79,VALID,0,VALID,92.9198,VALID,0,VALID,24.1014,VALID,35,VALID,0,
2009-06-11, 02:07:04,VALID,1009.79,VALID,0,VALID,92.9351,VALID,0,VALID,24.0819,VALID,35,VALID,0,
2009-06-11, 02:08:04,VALID,1009.77,VALID,0,VALID,92.9503,VALID,0.105969,VALID,24.0819,VALID,35,VALID,0,
2009-06-11, 02:09:04,VALID,1009.79,VALID,0,VALID,92.9579,VALID,0,VALID,24.0624,VALID,35,VALID,0,
2009-06-11, 02:10:04,VALID,1009.78,VALID,0,VALID,92.9884,VALID,0.105969,VALID,24.0819,VALID,35,VALID,0,
2009-06-11, 02:11:04,VALID,1009.79,VALID,0,VALID,93.0037,VALID,0,VALID,24.1032,VALID,35,VALID,0,
2009-06-11, 02:12:04,VALID,1009.78,VALID,0,VALID,93.0342,VALID,0,VALID,24.0819,VALID,35,VALID,0,
2009-06-11, 02:13:04,VALID,1009.74,VALID,0,VALID,93.0571,VALID,0,VALID,24.0819,VALID,35,VALID,0,
2009-06-11, 02:14:04,VALID,1009.76,VALID,0,VALID,93.0723,VALID,0,VALID,24.1014,VALID,35,VALID,0,
2009-06-11, 02:15:04,VALID,1009.72,VALID,0,VALID,93.1181,VALID,0,VALID,24.1014,VALID,35,VALID,0,
2009-06-11, 02:16:04,VALID,1009.73,VALID,0,VALID,93.1105,VALID,0,VALID,24.1014,VALID,35,VALID,0,
2009-06-11, 02:17:04,VALID,1009.69,VALID,0,VALID,93.1181,VALID,0,VALID,24.1014,VALID,35,VALID,0,
2009-06-11, 02:18:04,VALID,1009.68,VALID,0,VALID,93.141,VALID,0,VALID,24.0819,VALID,35,VALID,0,
2009-06-11, 02:19:04,VALID,1009.67,VALID,0,VALID,93.1486,VALID,0,VALID,24.0624,VALID,35,VALID,0,
2009-06-11, 02:20:04,VALID,1009.65,VALID,0,VALID,93.1257,VALID,0,VALID,24.0624,VALID,35,VALID,0,
2009-06-11, 02:21:04,VALID,1009.64,VALID,0,VALID,93.1333,VALID,0,VALID,24.0624,VALID,35,VALID,0,
2009-06-11, 02:22:04,VALID,1009.64,VALID,0,VALID,93.141,VALID,0,VALID,24.0643,VALID,35,VALID,0,
2009-06-11, 02:23:04,VALID,1009.63,VALID,0,VALID,93.1333,VALID,0,VALID,24.0253,VALID,35,VALID,0,
2009-06-11, 02:24:04,VALID,1009.6,VALID,0,VALID,93.1486,VALID,0.105969,VALID,23.9845,VALID,35,VALID,0,
2009-06-11, 02:25:04,VALID,1009.6,VALID,0,VALID,93.1181,VALID,0,VALID,23.965,VALID,35,VALID,0,
2009-06-11, 02:26:04,VALID,1009.6,VALID,0,VALID,93.1257,VALID,0.105969,VALID,23.965,VALID,35,VALID,0,
2009-06-11, 02:27:04,VALID,1009.61,VALID,0,VALID,93.1486,VALID,0,VALID,23.9845,VALID,35,VALID,0,
2009-06-11, 02:28:04,VALID,1009.58,VALID,0,VALID,93.1715,VALID,0,VALID,24.0058,VALID,35,VALID,0,
2009-06-11, 02:29:04,VALID,1009.54,VALID,0,VALID,93.1867,VALID,0,VALID,23.9845,VALID,35,VALID,0,
2009-06-11, 02:30:04,VALID,1009.55,VALID,0,VALID,93.202,VALID,0,VALID,23.9845,VALID,35,VALID,0,
2009-06-11, 02:31:04,VALID,1009.54,VALID,0,VALID,93.2248,VALID,0.105969,VALID,23.9845,VALID,35,VALID,0,
2009-06-11, 02:32:04,VALID,1009.54,VALID,0,VALID,93.2248,VALID,0,VALID,24.0253,VALID,7,VALID,0,
2009-06-11, 02:33:04,VALID,1009.56,VALID,0,VALID,93.2477,VALID,0.105969,VALID,24.0235,VALID,1,VALID,0,
2009-06-11, 02:34:04,VALID,1009.53,VALID,0,VALID,93.2782,VALID,0,VALID,24.0624,VALID,353,VALID,0,
2009-06-11, 02:35:04,VALID,1009.53,VALID,0,VALID,93.2935,VALID,0,VALID,24.0624,VALID,353,VALID,0,
2009-06-11, 02:36:04,VALID,1009.55,VALID,0,VALID,93.324,VALID,0,VALID,24.0429,VALID,353,VALID,0,
2009-06-11, 02:37:04,VALID,1009.5,VALID,0,VALID,93.324,VALID,0,VALID,24.0429,VALID,353,VALID,0,
2009-06-11, 02:38:04,VALID,1009.53,VALID,0,VALID,93.324,VALID,0,VALID,24.0235,VALID,353,VALID,0,
2009-06-11, 02:39:04,VALID,1009.52,VALID,0,VALID,93.324,VALID,0.105969,VALID,24.0235,VALID,353,VALID,0,
2009-06-11, 02:40:04,VALID,1009.54,VALID,0,VALID,93.3621,VALID,0.105969,VALID,24.0235,VALID,353,VALID,0,
2009-06-11, 02:41:04,VALID,1009.54,VALID,0,VALID,93.3545,VALID,0.105969,VALID,24.0235,VALID,353,VALID,0,
2009-06-11, 02:42:04,VALID,1009.56,VALID,0,VALID,93.3621,VALID,0,VALID,24.0235,VALID,353,VALID,0,
2009-06-11, 02:43:04,VALID,1009.56,VALID,0,VALID,93.3697,VALID,0,VALID,24.0235,VALID,353,VALID,0,
2009-06-11, 02:44:04,VALID,1009.56,VALID,0,VALID,93.3773,VALID,0,VALID,24.0448,VALID,353,VALID,0,
2009-06-11, 02:45:04,VALID,1009.55,VALID,0,VALID,93.3926,VALID,0,VALID,24.0235,VALID,353,VALID,0,
2009-06-11, 02:46:04,VALID,1009.55,VALID,0,VALID,93.4002,VALID,0,VALID,24.0235,VALID,353,VALID,0,
2009-06-11, 02:47:04,VALID,1009.56,VALID,0,VALID,93.4079,VALID,0,VALID,24.0448,VALID,353,VALID,0,
2009-06-11, 02:48:04,VALID,1009.56,VALID,0,VALID,93.4231,VALID,0,VALID,24.0235,VALID,353,VALID,0,
2009-06-11, 02:49:04,VALID,1009.54,VALID,0,VALID,93.4384,VALID,0.105969,VALID,24.0235,VALID,353,VALID,0,
2009-06-11, 02:50:04,VALID,1009.55,VALID,0,VALID,93.4231,VALID,0,VALID,24.004,VALID,353,VALID,0,
2009-06-11, 02:51:04,VALID,1009.53,VALID,0,VALID,93.446,VALID,0,VALID,24.004,VALID,353,VALID,0,
2009-06-11, 02:52:04,VALID,1009.52,VALID,0,VALID,93.4689,VALID,0,VALID,24.004,VALID,353,VALID,0,
2009-06-11, 02:53:04,VALID,1009.54,VALID,0,VALID,93.4765,VALID,0.105969,VALID,24.004,VALID,353,VALID,0,
2009-06-11, 02:54:04,VALID,1009.54,VALID,0,VALID,93.4765,VALID,0,VALID,23.9845,VALID,353,VALID,0,
2009-06-11, 02:55:04,VALID,1009.51,VALID,0,VALID,93.4994,VALID,0,VALID,24.004,VALID,328,VALID,0,
2009-06-11, 02:56:04,VALID,1009.51,VALID,0,VALID,93.4917,VALID,0,VALID,24.0235,VALID,321,VALID,0,
2009-06-11, 02:57:04,VALID,1009.5,VALID,0,VALID,93.4917,VALID,0.105969,VALID,24.0235,VALID,338,VALID,0.478125,
2009-06-11, 02:58:04,VALID,1009.49,VALID,0,VALID,93.5222,VALID,0,VALID,24.0235,VALID,338,VALID,0.126563,
2009-06-11, 02:59:04,VALID,1009.48,VALID,0,VALID,93.507,VALID,0,VALID,24.0235,VALID,338,VALID,0.160938,
2009-06-11, 03:00:04,VALID,1009.46,VALID,0,VALID,93.5222,VALID,0,VALID,24.0235,VALID,312,VALID,0.440234,
2009-06-11, 03:01:04,VALID,1009.47,VALID,0,VALID,93.5375,VALID,0,VALID,24.0448,VALID,312,VALID,0,
2009-06-11, 03:02:04,VALID,1009.43,VALID,0,VALID,93.5375,VALID,0,VALID,24.0466,VALID,312,VALID,0,
2009-06-11, 03:03:04,VALID,1009.43,VALID,0,VALID,93.5375,VALID,0,VALID,24.0058,VALID,312,VALID,0,
2009-06-11, 03:04:04,VALID,1009.41,VALID,0,VALID,93.5222,VALID,0,VALID,24.0253,VALID,312,VALID,0,
2009-06-11, 03:05:04,VALID,1009.4,VALID,0,VALID,93.5299,VALID,0,VALID,24.0253,VALID,312,VALID,0,
2009-06-11, 03:06:04,VALID,1009.4,VALID,0,VALID,93.5375,VALID,0,VALID,24.0253,VALID,312,VALID,0,
2009-06-11, 03:07:04,VALID,1009.37,VALID,0,VALID,93.5299,VALID,0,VALID,24.0448,VALID,312,VALID,0,
2009-06-11, 03:08:04,VALID,1009.41,VALID,0,VALID,93.5375,VALID,0,VALID,24.0253,VALID,312,VALID,0,
2009-06-11, 03:09:04,VALID,1009.4,VALID,0,VALID,93.5451,VALID,0,VALID,24.0253,VALID,312,VALID,0,
2009-06-11, 03:10:04,VALID,1009.41,VALID,0,VALID,93.5527,VALID,0,VALID,24.0058,VALID,312,VALID,0,
2009-06-11, 03:11:04,VALID,1009.39,VALID,0,VALID,93.5527,VALID,0,VALID,23.9863,VALID,312,VALID,0,
2009-06-11, 03:12:04,VALID,1009.36,VALID,0,VALID,93.5451,VALID,0,VALID,23.9473,VALID,312,VALID,0.392578,
2009-06-11, 03:13:04,VALID,1009.35,VALID,0,VALID,93.5527,VALID,0,VALID,23.9084,VALID,312,VALID,0.287891,
2009-06-11, 03:14:04,VALID,1009.37,VALID,0,VALID,93.507,VALID,0,VALID,23.8889,VALID,312,VALID,0.283203,
2009-06-11, 03:15:05,VALID,1009.31,VALID,0,VALID,93.5146,VALID,0,VALID,23.8694,VALID,312,VALID,0.183984,
2009-06-11, 03:16:04,VALID,1009.31,VALID,0,VALID,93.4994,VALID,0,VALID,23.8499,VALID,312,VALID,0.04375,
2009-06-11, 03:17:04,VALID,1009.29,VALID,0,VALID,93.4689,VALID,0,VALID,23.7896,VALID,312,VALID,0,
2009-06-11, 03:18:05,VALID,1009.28,VALID,0,VALID,93.446,VALID,0,VALID,23.7507,VALID,312,VALID,0,
2009-06-11, 03:19:05,VALID,1009.26,VALID,0,VALID,93.4384,VALID,0,VALID,23.7312,VALID,312,VALID,0,
2009-06-11, 03:20:05,VALID,1009.25,VALID,0,VALID,93.385,VALID,0.105969,VALID,23.6922,VALID,312,VALID,0,
2009-06-11, 03:21:05,VALID,1009.28,VALID,0,VALID,93.3773,VALID,0,VALID,23.733,VALID,312,VALID,0,
2009-06-11, 03:22:05,VALID,1009.27,VALID,0,VALID,93.3621,VALID,0,VALID,23.6922,VALID,312,VALID,0,
2009-06-11, 03:23:05,VALID,1009.31,VALID,0,VALID,93.385,VALID,0,VALID,23.6922,VALID,312,VALID,0,
2009-06-11, 03:24:05,VALID,1009.34,VALID,0,VALID,93.385,VALID,0,VALID,23.7117,VALID,312,VALID,0,
2009-06-11, 03:25:05,VALID,1009.33,VALID,0,VALID,93.4002,VALID,0,VALID,23.7312,VALID,312,VALID,0,
2009-06-11, 03:26:05,VALID,1009.35,VALID,0,VALID,93.446,VALID,0,VALID,23.7701,VALID,313,VALID,0.429297,
2009-06-11, 03:27:05,VALID,1009.37,VALID,0,VALID,93.4841,VALID,0,VALID,23.8091,VALID,325,VALID,0.567969,
2009-06-11, 03:28:05,VALID,1009.39,VALID,0,VALID,93.4841,VALID,0,VALID,23.8091,VALID,330,VALID,0.379687,
2009-06-11, 03:29:05,VALID,1009.42,VALID,0,VALID,93.5222,VALID,0.105969,VALID,23.8091,VALID,330,VALID,0.152344,
2009-06-11, 03:30:05,VALID,1009.45,VALID,0,VALID,93.5527,VALID,0,VALID,23.8304,VALID,330,VALID,0,
2009-06-11, 03:31:05,VALID,1009.45,VALID,0,VALID,93.5604,VALID,0,VALID,23.8286,VALID,330,VALID,0,
2009-06-11, 03:32:05,VALID,1009.41,VALID,0,VALID,93.5756,VALID,0,VALID,23.8286,VALID,330,VALID,0.0230469,
2009-06-11, 03:33:05,VALID,1009.43,VALID,0,VALID,93.568,VALID,0,VALID,23.8481,VALID,330,VALID,0,
2009-06-11, 03:34:05,VALID,1009.41,VALID,0,VALID,93.5985,VALID,0,VALID,23.8304,VALID,330,VALID,0,
2009-06-11, 03:35:05,VALID,1009.43,VALID,0,VALID,93.5909,VALID,0,VALID,23.8091,VALID,330,VALID,0,
2009-06-11, 03:36:05,VALID,1009.38,VALID,0,VALID,93.5756,VALID,0,VALID,23.7914,VALID,330,VALID,0,
2009-06-11, 03:37:05,VALID,1009.38,VALID,0,VALID,93.5985,VALID,0,VALID,23.772,VALID,330,VALID,0,
2009-06-11, 03:38:05,VALID,1009.4,VALID,0,VALID,93.5909,VALID,0,VALID,23.772,VALID,330,VALID,0,
2009-06-11, 03:39:05,VALID,1009.4,VALID,0,VALID,93.5985,VALID,0,VALID,23.7135,VALID,330,VALID,0,
2009-06-11, 03:40:05,VALID,1009.38,VALID,0,VALID,93.5756,VALID,0,VALID,23.694,VALID,330,VALID,0,
2009-06-11, 03:41:05,VALID,1009.39,VALID,0,VALID,93.5832,VALID,0,VALID,23.6745,VALID,330,VALID,0,
2009-06-11, 03:42:05,VALID,1009.4,VALID,0,VALID,93.568,VALID,0,VALID,23.6763,VALID,330,VALID,0,
2009-06-11, 03:43:05,VALID,1009.4,VALID,0,VALID,93.5604,VALID,0,VALID,23.655,VALID,330,VALID,0,
2009-06-11, 03:44:05,VALID,1009.38,VALID,0,VALID,93.5604,VALID,0,VALID,23.6356,VALID,330,VALID,0,
2009-06-11, 03:45:05,VALID,1009.37,VALID,0,VALID,93.5756,VALID,0,VALID,23.655,VALID,330,VALID,0,
2009-06-11, 03:46:05,VALID,1009.37,VALID,0,VALID,93.568,VALID,0,VALID,23.6143,VALID,330,VALID,0,
2009-06-11, 03:47:05,VALID,1009.39,VALID,0,VALID,93.568,VALID,0,VALID,23.5558,VALID,330,VALID,0,
2009-06-11, 03:48:05,VALID,1009.38,VALID,0,VALID,93.5604,VALID,0.105969,VALID,23.5363,VALID,330,VALID,0,
2009-06-11, 03:49:05,VALID,1009.37,VALID,0,VALID,93.568,VALID,0.105969,VALID,23.5363,VALID,330,VALID,0,
2009-06-11, 03:50:05,VALID,1009.38,VALID,0,VALID,93.5756,VALID,0,VALID,23.5363,VALID,330,VALID,0,
2009-06-11, 03:51:05,VALID,1009.38,VALID,0,VALID,93.5909,VALID,0.105969,VALID,23.5576,VALID,330,VALID,0,
2009-06-11, 03:52:05,VALID,1009.39,VALID,0,VALID,93.6137,VALID,0.105969,VALID,23.5363,VALID,330,VALID,0,
2009-06-11, 03:53:05,VALID,1009.39,VALID,0,VALID,93.6214,VALID,0.105969,VALID,23.5558,VALID,330,VALID,0,